GEFSCGP_con_cape1000_126.txt.gz
Probability
0 0 0 0 0 0 0 0 0 0 0 0 0 3 6 13 13 19 16 16 26 16 16 19 16 23 10 10 6 6 3 3 3 3 3 3 3 3 3 3 3 0 0 0
0 0 0 0 0 0 0 0 0 0 0 0 0 3 3 13 13 16 16 19 26 16 16 16 10 13 10 3 0 3 3 3 3 3 3 3 3 3 3 0 0 0 0 0
0 0 0 0 0 0 0 0 0 0 0 0 0 3 3 3 6 0 10 13 23 16 13 10 13 10 10 6 3 0 3 3 3 3 3 3 0 0 0 0 0 0 0 0
0 0 0 0 0 0 0 0 0 0 0 0 0 0 0 0 3 3 10 13 16 10 16 13 10 6 6 6 6 3 3 3 3 3 3 0 0 0 0 0 0 0 0 0
0 0 0 0 0 0 0 0 0 0 0 0 0 0 0 0 0 3 3 6 10 3 10 10 10 6 6 6 6 3 3 3 0 0 0 0 0 0 0 0 0 0 0 0
0 0 0 0 0 0 0 0 0 0 0 0 0 0 0 0 0 0 0 3 6 6 6 10 10 6 6 6 6 3 6 0 0 0 0 0 0 0 0 0 0 0 0 0
0 0 0 0 0 0 0 0 0 0 0 0 0 0 0 0 0 0 0 0 6 3 6 10 6 3 3 6 3 0 0 0 0 0 0 0 0 0 0 0 0 0 0 0
0 0 0 0 0 0 0 0 0 0 0 0 0 0 0 0 0 0 0 0 3 3 6 6 3 3 3 3 3 0 0 0 0 0 0 0 0 0 0 0 0 0 0 0
0 0 0 0 0 0 0 0 0 0 0 0 0 0 0 0 0 0 0 0 0 3 3 6 3 3 3 3 0 0 0 0 0 0 0 0 0 0 0 0 0 0 0 0
0 0 0 0 0 0 0 0 0 0 0 0 0 0 0 0 0 0 0 0 0 0 0 0 3 3 3 0 0 0 0 0 0 0 0 0 0 0 0 0 0 0 0 0
0 0 0 0 0 0 0 0 0 0 0 0 0 0 0 0 0 0 0 0 0 0 0 0 0 0 0 0 0 0 0 0 0 0 0 0 0 0 0 0 0 0 0 0
0 0 0 0 0 0 0 0 0 0 0 0 0 0 0 0 0 0 0 0 0 0 0 0 0 0 0 0 0 0 0 0 0 0 0 0 0 0 0 0 0 0 0 0
0 0 0 0 0 0 0 0 0 0 0 0 0 0 0 0 0 0 0 0 0 0 0 0 0 0 0 0 0 0 0 0 0 0 0 0 0 0 0 0 0 0 0 0
0 0 0 0 0 0 0 0 0 0 0 0 0 0 0 0 0 0 0 0 0 0 0 0 0 0 0 0 0 0 0 0 0 0 0 0 0 0 0 0 0 0 0 0
0 0 0 0 0 0 0 0 0 0 0 0 0 0 0 0 0 0 0 0 0 0 0 0 0 0 0 0 0 0 0 0 0 0 0 0 0 0 0 0 0 0 0 0
0 0 0 0 0 0 0 0 0 0 0 0 0 0 0 0 0 0 0 0 0 0 0 0 0 0 0 0 0 0 0 0 0 0 0 0 0 0 0 0 0 0 0 0
0 0 0 0 0 0 0 0 0 0 0 0 0 0 0 0 0 0 0 0 0 0 0 0 0 0 0 0 0 0 0 0 0 0 0 0 0 0 0 0 0 0 0 0
0 0 0 0 0 0 0 0 0 0 0 0 0 0 0 0 0 0 0 0 0 0 0 0 0 0 0 0 0 0 0 0 0 0 0 0 0 0 0 0 0 0 0 0
0 0 0 0 0 0 0 0 0 0 0 0 0 0 0 0 0 0 0 0 0 0 0 0 0 0 0 0 0 0 0 0 0 0 0 0 0 0 0 0 0 0 0 0
0 0 0 0 0 0 0 0 0 0 0 0 0 0 0 0 0 0 0 0 0 0 0 0 0 0 0 0 0 0 0 0 0 0 0 0 0 0 0 0 0 0 0 0
0 0 0 0 0 0 0 0 0 0 0 0 0 0 0 0 0 0 0 0 0 0 0 0 0 0 0 0 0 0 0 0 0 0 0 0 0 0 0 0 0 0 0 0
0 0 0 0 0 0 0 0 0 0 0 0 0 0 0 0 0 0 0 0 0 0 0 0 0 0 0 0 0 0 0 0 0 0 0 0 0 0 0 0 0 0 0 0
0 0 0 0 0 0 0 0 0 0 0 0 0 0 0 0 0 0 0 0 0 0 0 0 0 0 0 0 0 0 0 0 0 0 0 0 0 0 0 0 0 0 0 0
0 0 0 0 0 0 0 0 0 0 0 0 0 0 0 0 0 0 0 0 0 0 0 0 0 0 0 0 0 0 0 0 0 0 0 0 0 0 0 0 0 0 0 0
0 0 0 0 0 0 0 0 0 0 0 0 0 0 0 0 0 0 0 0 0 0 0 0 0 0 0 0 0 0 0 0 0 0 0 0 0 0 0 0 0 0 0 0
0 0 0 0 0 0 0 0 0 0 0 0 0 0 0 0 0 0 0 0 0 0 0 0 0 0 0 0 0 0 0 0 0 0 0 0 0 0 0 0 0 0 0 0

GEFSCGP_con_cape1000_132.txt.gz
Probability
0 0 0 0 0 0 0 0 0 0 0 0 0 0 10 13 16 16 23 32 42 42 35 42 35 29 32 42 45 52 42 39 52 48 42 39 26 26 23 23 26 23 16 16
0 0 0 0 0 0 0 0 0 0 0 0 0 0 3 10 19 26 26 26 39 39 35 35 32 32 35 35 39 45 45 35 39 52 42 35 29 23 19 19 26 19 13 13
0 0 0 0 0 0 0 0 0 0 0 0 0 0 0 10 13 16 23 23 23 35 32 32 29 32 29 23 26 26 35 39 35 39 32 32 32 16 16 19 16 16 16 13
0 0 0 0 0 0 0 0 0 0 0 0 0 0 3 10 16 16 29 26 32 29 32 29 29 26 29 26 26 29 39 42 45 39 29 23 23 19 16 19 13 16 13 16
0 0 0 0 0 0 0 0 0 0 0 0 0 0 0 3 10 16 29 29 29 39 29 32 26 29 23 23 23 32 39 39 45 35 35 29 23 23 16 13 10 10 10 10
0 0 0 0 0 0 0 0 0 0 0 0 0 0 0 0 3 6 13 13 29 29 26 23 26 23 23 19 19 32 35 39 39 39 29 26 26 23 16 13 13 3 3 3
0 0 0 0 0 0 0 0 0 0 0 0 0 0 0 0 0 3 6 13 19 23 26 39 32 29 26 26 26 29 32 35 35 26 23 19 19 23 16 13 16 3 0 3
0 0 0 0 0 0 0 0 0 0 0 0 0 0 0 0 0 0 6 10 23 26 26 35 39 39 29 19 23 26 32 39 29 23 29 29 26 16 13 13 6 3 0 0
0 0 0 0 0 0 0 0 0 0 0 0 0 0 0 0 3 6 6 6 16 23 26 32 35 35 26 26 23 26 39 42 32 19 26 19 16 13 10 10 6 3 3 0
0 0 0 0 0 0 0 0 0 0 0 0 0 0 0 13 3 3 6 6 13 23 13 23 32 32 29 35 42 39 42 39 29 19 23 13 16 16 10 6 6 3 3 6
0 0 0 0 0 0 0 0 0 0 0 0 0 0 0 10 10 6 13 10 19 13 13 19 29 35 39 42 39 42 42 39 26 19 16 6 6 10 6 6 3 6 6 6
0 0 0 0 0 0 0 0 0 0 0 0 0 0 0 3 6 10 10 10 13 13 6 19 23 35 42 42 45 55 48 35 29 23 19 13 13 10 10 3 6 6 6 6
3 0 0 0 0 0 0 0 0 0 0 0 0 0 3 3 6 10 6 10 13 16 10 19 23 35 48 42 52 42 39 35 23 23 23 16 13 10 10 6 6 6 3 3
0 3 0 0 0 0 0 0 0 0 0 0 0 0 3 3 3 10 13 13 16 23 26 26 39 52 48 48 45 45 42 32 16 26 23 19 16 13 6 6 6 3 3 6
0 0 0 0 0 0 0 0 0 0 0 0 0 0 0 13 3 10 13 19 23 23 29 39 52 58 58 58 58 52 42 35 23 26 23 19 16 16 10 3 3 6 6 6
3 0 0 0 0 0 0 0 0 0 0 0 0 0 3 0 6 6 13 16 19 23 19 39 52 61 65 58 61 55 42 39 35 26 19 19 13 10 10 10 6 6 6 6
3 3 0 0 0 0 0 0 0 0 0 0 0 6 3 3 13 13 10 16 16 23 16 32 45 61 74 68 61 52 39 39 32 26 19 13 10 13 10 6 3 6 3 6
16 16 0 0 0 0 0 0 0 0 0 0 0 0 3 10 6 13 16 26 23 16 19 26 42 52 65 65 58 48 35 35 32 23 13 13 13 13 10 10 6 6 6 6
13 13 0 0 0 0 0 0 0 0 0 0 0 0 6 6 3 6 13 19 35 26 29 52 48 45 58 52 45 39 32 29 19 13 10 10 6 10 10 6 6 6 3 3
0 10 3 0 0 0 0 0 0 0 6 3 3 10 6 6 13 16 16 19 23 32 52 55 52 48 55 52 42 39 23 19 23 16 13 10 10 6 6 3 3 3 3 3
3 3 3 0 0 0 0 0 0 0 6 10 10 3 13 26 16 19 6 19 23 35 48 58 55 45 55 52 45 35 23 16 16 10 13 10 10 10 10 6 3 0 0 0
0 0 0 0 0 0 0 3 3 26 39 13 10 10 13 16 6 6 3 23 32 39 32 48 52 48 48 39 35 39 29 13 13 13 16 16 13 10 3 3 6 0 0 0
0 0 3 0 0 3 3 3 16 19 19 16 13 10 13 0 0 3 13 29 29 32 35 35 35 52 39 26 23 26 29 19 13 13 16 16 13 6 0 6 6 3 3 0
0 6 0 3 6 6 0 3 10 6 6 3 0 0 3 3 10 13 16 23 26 29 29 26 23 26 23 16 10 19 23 13 10 10 13 6 3 3 3 3 3 3 3 0
0 0 0 0 3 3 3 6 6 3 0 0 0 3 3 3 6 16 19 26 23 13 13 10 16 23 16 10 13 10 10 6 6 6 3 3 3 3 3 3 3 3 0 0
0 0 0 0 6 3 3 3 0 0 0 0 0 0 0 0 13 10 10 10 13 3 6 10 13 13 10 10 6 3 6 6 6 3 3 3 3 3 3 3 3 0 0 0

GEFSCGP_con_cape1000_138.txt.gz
Probability
0 0 0 0 0 0 0 0 0 0 0 0 3 6 16 16 19 26 23 39 32 58 65 68 68 61 61 58 65 68 68 74 81 81 77 77 65 55 48 45 42 39 32 32
0 0 0 0 0 0 0 0 0 0 0 0 0 3 13 13 16 23 32 32 42 61 61 58 65 65 55 52 61 65 77 71 77 87 84 77 61 48 52 45 48 32 29 26
0 0 0 0 0 0 0 0 0 0 0 0 0 3 19 19 13 29 26 42 42 58 61 55 48 55 48 48 52 58 77 77 81 71 58 58 61 39 32 35 45 32 23 23
0 0 0 0 0 0 0 0 0 0 0 0 0 0 16 29 32 16 23 45 42 48 58 45 45 42 45 45 48 74 77 71 71 65 48 42 45 42 39 42 39 32 26 19
0 0 0 0 0 0 0 0 0 0 0 0 0 0 3 19 32 29 32 26 35 48 48 39 35 35 29 35 39 45 68 65 61 55 55 52 45 42 29 29 35 32 29 16
0 0 0 0 0 0 0 0 0 0 0 3 0 0 6 16 26 23 23 29 35 42 39 42 35 35 29 29 39 45 61 61 65 52 48 45 32 42 29 29 29 29 35 19
0 0 0 0 0 0 0 0 3 0 3 0 0 0 10 10 13 32 23 26 26 35 39 35 32 35 42 48 45 52 61 65 55 48 45 48 35 39 32 29 29 26 19 16
0 0 0 0 0 0 0 0 0 0 0 0 0 0 3 0 16 29 29 26 23 32 32 35 32 42 32 45 48 55 65 55 52 48 55 39 42 29 23 26 23 19 23 13
0 0 0 0 0 0 0 0 0 0 0 0 0 3 0 0 10 16 23 29 26 29 26 29 35 32 29 45 45 55 61 55 58 58 52 42 29 29 23 19 19 23 13 6
0 0 0 0 0 0 0 0 0 0 0 0 0 0 3 3 10 13 16 23 23 26 29 32 35 45 55 48 55 65 65 55 52 52 42 19 29 26 26 19 16 10 6 6
0 0 0 0 0 0 0 0 0 0 19 0 0 0 0 19 19 13 16 23 29 29 26 42 45 48 52 48 45 61 58 48 48 45 39 35 29 29 19 19 13 10 10 10
0 0 0 0 0 0 0 0 0 10 13 6 0 0 0 6 13 16 10 29 29 29 29 32 39 42 48 42 48 65 55 48 48 48 35 35 32 26 19 16 13 13 13 13
0 0 0 0 0 0 0 0 0 0 13 3 0 0 0 16 10 10 16 26 42 42 32 42 42 55 48 55 61 68 61 48 35 32 29 35 39 29 19 16 13 13 13 10
0 6 0 0 0 0 0 0 0 0 0 0 0 0 3 6 13 13 23 39 39 42 58 58 74 81 81 81 81 71 65 48 35 35 26 32 39 29 23 19 13 16 13 13
3 0 0 0 0 0 0 0 0 0 0 0 0 0 0 6 10 13 26 35 39 42 52 68 81 84 87 87 87 81 71 48 48 48 32 35 42 32 26 26 23 16 10 6
10 3 0 0 0 0 0 0 0 0 0 0 0 6 10 6 10 23 39 42 42 48 39 55 81 87 87 87 87 87 77 68 61 52 35 35 32 35 32 29 23 10 10 10
3 23 0 0 0 0 0 3 0 0 3 3 10 6 6 10 32 45 55 48 48 42 58 68 74 87 87 87 87 87 84 74 65 58 39 35 35 32 29 16 23 23 13 13
10 26 29 0 0 0 0 0 0 0 3 6 6 6 3 6 32 39 45 68 61 45 61 77 81 84 84 87 90 90 84 71 68 55 45 42 39 29 32 29 29 32 29 19
16 29 16 6 0 0 0 0 0 3 6 6 0 0 0 3 29 35 52 61 71 68 71 81 84 74 81 90 90 90 87 68 58 55 48 42 35 29 32 29 35 42 35 39
10 29 19 10 0 0 0 0 0 0 19 3 3 3 6 16 35 55 61 48 65 77 84 77 77 77 87 90 94 94 90 74 61 55 48 45 45 39 32 35 48 42 42 39
6 13 6 0 0 0 0 3 0 0 23 23 16 19 26 61 52 68 61 68 71 87 87 87 81 84 87 94 94 94 90 77 68 61 52 52 52 48 52 55 58 52 35 26
0 0 0 3 3 0 3 0 16 35 39 16 16 19 23 35 48 45 61 74 74 74 71 74 90 87 90 90 94 90 90 84 74 61 52 58 55 29 26 58 65 61 45 35
0 0 3 10 3 23 3 13 13 32 26 23 19 19 29 26 45 48 55 68 77 74 68 71 77 77 84 90 94 87 84 84 71 68 68 61 58 48 45 48 48 45 45 23
0 3 0 3 3 3 6 10 13 19 16 16 16 16 16 26 32 48 61 68 77 81 84 71 71 74 81 81 81 84 84 77 68 71 68 61 52 45 45 52 35 23 19 10
0 0 0 3 6 3 3 6 6 6 6 3 0 3 16 26 32 42 61 68 68 77 74 71 74 74 71 71 71 71 77 68 68 71 68 48 48 42 52 45 35 26 19 16
0 0 0 3 13 6 3 10 6 10 0 0 6 13 23 29 39 45 58 65 71 74 74 74 71 65 65 61 68 65 68 65 65 61 52 29 29 39 26 32 13 0 0 0

GEFSCGP_con_cape1000_144.txt.gz
Probability
0 0 0 0 0 0 0 0 0 0 0 3 3 6 10 13 23 19 39 42 42 32 29 29 29 26 32 32 23 23 26 19 10 10 13 13 6 10 10 10 6 6 6 3
0 0 0 0 0 0 0 0 0 0 0 0 6 6 10 16 10 19 35 29 39 29 26 19 23 29 29 19 16 23 16 16 13 10 10 6 6 10 10 10 10 10 10 6
0 0 0 0 0 0 0 0 0 0 0 0 3 3 10 13 10 13 23 23 26 26 19 26 19 19 16 16 16 23 16 16 13 10 10 10 10 6 6 6 10 10 10 6
0 0 0 0 0 0 0 0 0 0 0 0 0 0 3 3 3 13 16 19 13 19 19 26 26 16 13 13 16 19 19 16 13 13 10 10 6 6 6 6 10 10 10 10
0 0 0 0 0 0 0 0 0 0 0 0 0 0 0 0 6 3 6 13 16 16 19 23 16 16 13 16 16 16 19 16 13 13 10 6 6 6 6 3 3 6 3 3
0 0 0 0 0 0 0 0 0 0 0 0 0 0 0 0 0 3 10 16 16 19 19 19 16 16 19 16 16 19 10 10 13 13 10 6 6 3 3 3 3 3 3 3
0 0 0 0 0 0 0 0 0 0 0 0 0 0 0 0 0 3 6 10 16 16 19 19 19 13 16 19 16 16 10 10 13 10 10 6 6 3 3 3 3 3 3 3
0 0 0 0 0 0 0 0 0 0 0 0 0 0 0 3 3 3 6 6 16 16 19 19 23 19 23 19 16 16 10 10 13 10 10 6 3 3 3 3 3 3 3 3
0 0 0 0 0 0 0 0 0 0 0 0 0 0 0 0 0 3 3 10 10 16 23 23 23 19 23 19 16 23 16 13 13 10 6 6 3 3 3 3 3 3 3 3
0 0 0 0 0 0 0 0 0 0 0 0 0 0 0 0 0 0 3 3 10 13 19 19 23 19 16 16 16 26 23 16 13 13 10 6 3 3 3 3 3 3 0 0
0 0 0 0 0 0 0 0 0 0 0 0 0 0 0 0 0 0 0 3 10 10 16 23 19 16 13 13 16 19 19 13 10 10 10 6 3 3 3 3 3 0 0 0
0 0 0 0 0 0 0 0 0 0 0 0 0 0 0 0 0 0 0 3 10 13 16 19 16 16 16 13 13 19 16 10 10 10 6 6 6 3 3 0 0 0 0 0
0 0 0 0 0 0 0 0 0 0 0 0 0 0 0 0 0 0 0 6 13 16 13 16 13 13 16 13 16 19 13 13 10 6 6 6 6 6 0 0 0 0 0 0
0 0 0 0 0 0 0 0 0 0 0 0 0 0 0 0 0 0 0 0 6 13 16 16 16 19 19 13 16 19 16 13 10 6 6 6 6 3 0 0 0 0 0 0
0 0 0 0 0 0 0 0 0 0 0 0 0 0 0 0 0 0 0 0 10 6 13 16 19 16 16 13 10 13 16 13 10 6 6 3 3 0 0 0 0 0 0 0
0 0 0 0 0 0 0 0 0 0 0 0 0 0 0 0 0 0 0 3 6 6 6 19 23 19 16 13 10 13 13 10 6 6 3 3 3 0 0 0 0 0 0 0
0 0 0 0 0 0 0 0 0 0 0 0 0 0 0 0 0 0 0 0 3 6 6 13 16 16 16 19 13 6 6 6 6 6 3 3 3 0 0 0 0 0 0 0
0 0 0 0 0 0 0 0 0 0 0 0 0 0 0 0 0 0 0 0 3 6 10 13 19 16 16 23 16 10 6 6 6 3 3 6 0 0 0 0 0 0 0 0
0 0 0 0 0 0 0 0 0 0 0 0 0 0 0 0 0 0 0 0 0 6 13 23 23 19 23 23 16 13 6 10 6 3 6 6 3 0 0 0 0 0 0 3
0 0 0 0 0 0 0 0 0 0 0 0 0 0 0 0 0 3 0 3 3 3 10 16 13 23 26 19 13 16 6 6 3 0 3 6 3 6 3 3 0 0 0 3
0 0 0 0 0 0 0 0 0 0 0 0 0 0 0 0 0 0 0 6 10 6 10 16 13 13 26 13 13 13 13 10 10 3 6 3 3 3 3 0 0 0 3 3
0 0 0 0 0 0 0 0 0 0 0 0 0 0 0 0 3 3 3 6 6 6 13 13 16 13 19 16 13 16 16 16 10 10 10 6 6 6 3 0 0 0 3 0
0 0 0 0 0 0 0 0 0 0 0 0 0 0 3 3 10 10 3 3 3 6 6 6 10 16 13 13 19 16 16 6 10 0 0 0 0 0 3 0 0 0 0 0
0 0 0 0 0 0 0 0 0 0 0 0 0 0 3 6 6 0 6 3 3 0 3 6 6 10 10 16 16 13 13 10 13 10 6 3 3 0 0 0 0 0 0 0
0 0 0 0 0 0 0 0 0 0 0 0 0 0 0 0 3 0 0 3 3 3 6 6 3 6 6 13 16 16 13 10 13 6 0 0 0 0 0 0 0 0 0 3
0 0 0 0 0 0 0 0 0 0 0 0 0 3 0 0 0 3 0 0 6 0 6 10 6 10 6 10 13 10 10 0 3 3 3 0 0 0 0 0 0 0 0 0

GEFSCGP_con_cape1000_150.txt.gz
Probability
0 0 0 0 0 0 0 0 0 0 0 0 3 3 6 23 29 35 32 32 26 29 26 26 26 23 16 16 10 10 10 16 6 10 6 3 3 0 3 6 3 3 3 3
0 0 0 0 0 0 0 0 0 0 0 3 3 3 6 16 19 19 23 29 26 23 26 26 16 16 16 10 10 10 6 6 6 6 3 6 6 3 10 6 3 3 3 3
0 0 0 0 0 0 0 0 0 0 0 0 0 0 3 6 10 10 16 16 19 13 19 19 16 13 13 10 6 6 3 3 6 3 3 10 3 3 3 6 6 6 3 3
0 0 0 0 0 0 0 0 0 0 0 0 0 0 0 3 6 10 16 13 10 10 6 6 13 10 10 10 6 6 3 3 3 0 6 6 3 3 3 6 6 6 3 3
0 0 0 0 0 0 0 0 0 0 0 0 0 0 0 0 6 6 10 6 10 3 3 6 10 10 10 10 6 6 3 3 3 0 6 6 10 3 3 6 6 6 3 3
0 0 0 0 0 0 0 0 0 0 0 0 0 0 0 0 3 3 6 3 0 10 10 6 6 6 10 10 6 3 3 0 3 3 6 6 3 3 3 3 3 3 0 3
0 0 0 0 0 0 0 0 0 0 0 0 0 0 0 0 0 0 3 3 0 6 6 10 3 6 10 6 6 6 3 3 3 3 3 3 6 3 3 3 3 3 0 3
0 0 0 0 0 0 0 0 0 0 0 0 0 0 0 0 0 0 3 0 0 3 6 13 3 0 3 6 3 6 3 6 3 6 6 6 3 3 3 3 3 3 3 3
0 0 0 0 0 0 0 0 0 0 0 0 0 0 0 0 0 0 3 0 0 3 6 10 0 3 0 3 3 3 6 6 6 6 6 6 3 3 3 3 3 3 3 3
0 0 0 0 0 0 0 0 0 0 0 0 0 0 0 0 0 0 3 0 0 0 6 0 3 0 0 3 3 3 10 6 6 6 6 6 3 3 3 3 3 3 3 3
0 0 0 0 0 0 0 0 0 0 0 0 0 0 0 0 0 0 0 0 0 0 0 0 0 6 3 3 3 3 6 3 6 6 6 6 3 3 3 3 3 3 0 0
0 0 0 0 0 0 0 0 0 0 0 0 0 0 0 0 0 0 0 0 0 0 0 0 3 3 6 3 3 3 0 3 6 10 6 3 3 3 3 3 3 3 0 0
0 0 0 0 0 0 0 0 0 0 0 0 0 0 0 0 0 0 0 0 0 0 0 3 6 10 10 6 3 6 3 3 3 6 6 3 3 3 3 3 3 0 0 0
0 0 0 0 0 0 0 0 0 0 0 0 0 0 0 0 0 0 0 0 0 0 0 0 3 3 10 10 10 10 10 6 3 6 6 3 3 3 3 3 0 0 0 0
0 0 0 0 0 0 0 0 0 0 0 0 0 0 0 0 0 0 0 0 0 0 0 0 6 6 10 10 13 13 13 6 6 6 6 6 3 3 3 3 0 0 0 0
0 0 0 0 0 0 0 0 0 0 0 0 0 0 0 0 0 0 0 0 0 0 0 0 0 6 6 10 13 13 13 10 6 6 6 6 3 3 3 0 0 0 0 0
0 0 0 0 0 0 0 0 0 0 0 0 0 0 0 0 0 0 0 0 0 0 3 3 3 3 6 6 13 13 13 10 10 10 10 6 3 3 0 0 0 0 0 0
0 0 0 0 0 0 0 0 0 0 0 0 0 0 0 0 0 0 0 0 0 0 0 3 3 3 3 3 10 10 10 10 10 10 10 6 3 0 0 0 0 0 0 0
0 0 0 0 0 0 0 0 0 0 0 0 0 0 0 0 0 0 0 3 0 0 0 0 3 3 3 3 6 10 10 10 10 10 10 6 3 0 0 0 0 0 0 0
0 0 0 0 0 0 0 0 0 0 0 0 0 0 0 0 0 0 0 0 3 3 3 0 0 0 3 6 10 6 6 6 6 6 10 3 0 0 0 0 0 0 0 0
0 0 0 0 0 0 0 0 0 0 0 0 0 0 0 0 0 0 0 0 0 0 0 0 0 0 0 0 6 6 3 3 0 0 0 0 0 0 0 0 0 0 0 0
0 0 0 0 0 0 0 0 0 0 0 0 0 0 0 0 0 0 0 0 0 0 0 0 0 0 0 0 0 0 0 0 0 0 0 0 0 0 0 0 0 0 0 0
0 0 0 0 0 0 0 0 0 0 0 0 0 0 0 0 0 0 0 0 0 0 0 0 0 0 0 0 0 0 0 0 0 0 0 0 0 0 0 0 0 0 0 0
0 0 0 0 0 0 0 0 0 0 0 0 0 0 0 0 0 0 0 0 0 0 0 0 0 0 0 0 0 0 0 0 0 0 0 0 0 0 0 0 0 0 0 0
0 0 0 0 0 0 0 0 0 0 0 0 0 0 0 0 0 0 0 0 0 0 0 0 0 0 0 0 0 0 0 0 0 0 0 0 0 0 0 0 0 0 0 0
0 0 0 0 0 0 0 0 0 0 0 0 0 0 0 0 0 0 0 0 0 0 0 0 0 0 0 0 0 0 0 0 0 0 0 0 0 0 0 0 0 0 0 0